Flag for U.S.A. Weather past 2 weeks in Chico, California, U.S.A.

Now
95 °F

Sunny.


Feels Like: 92 °F
Forecast: 78 / 109 °F
Wind: 6 mph from Southeast

Location: Chico Municipal

Current Time: Jun 30, 2015 at 10:13:29 PM

Latest Report: Jun 30, 2015 at 9:35 PM


Visibility: 10 mi

Pressure: 29.77 "Hg

Humidity: 20%

Dew point: 48 °F

Location of ChicoLocation

Historic Weather in Chico — Graph

°F

Chico temperature yesterday

Maximum temperature yesterday: 99 °F (at 3:55 PM)
Minimum temperature yesterday: 68 °F (at 4:55 AM)
Average temperature yesterday: 82 °F

Past Weeks' High & Low Weather Summary

 TemperatureHumidityPressure
High108 °F (Jun 30, 4:50 PM)64% (Jun 16, 3:35 AM)30.02 "Hg (Jun 16, 3:35 AM)
Low59 °F (Jun 22, 5:55 AM)9% (Jun 22, 4:55 PM)29.73 "Hg (Jun 30, 6:55 PM)
Average81 °F33%29.87 "Hg
* Reported Jun 15 8:15 PM — Jun 30 8:55 PM, Chico, Weather by CustomWeather, © 2015

Note: Actual official high and low records may vary slightly from our data, if they occured in-between our weather recording intervals... More about our weather records

Advertising

Chico weather history for previous 24 hours

 ConditionsComfort  
Time TempWeatherWind HumidityBarometerVisibility
8:55 PM
Tue, Jun 30
97 °FSunny.7 mph25%29.75 "Hg10 mi
8:35 PM99 °FSunny.7 mph24%29.74 "Hg10 mi
7:55 PM100 °FSunny.6 mph21%29.74 "Hg10 mi
7:35 PM100 °FSunny.6 mph18%29.74 "Hg10 mi
7:15 PM102 °FSunny.7 mph16%29.74 "Hg10 mi
6:55 PM100 °FSunny.8 mph18%29.73 "Hg10 mi
5:55 PM104 °FScattered clouds.8 mph11%29.75 "Hg10 mi
4:50 PM108 °FScattered clouds.8 mph10%29.74 "Hg10 mi
3:50 PM106 °FScattered clouds.7 mph11%29.76 "Hg10 mi
2:50 PM104 °FScattered clouds.9 mph13%29.78 "Hg10 mi
1:50 PM102 °FScattered clouds.6 mph13%29.80 "Hg10 mi
12:50 PM100 °FScattered clouds.6 mph18%29.82 "Hg10 mi
11:50 AM95 °FScattered clouds.6 mph26%29.83 "Hg10 mi
10:50 AM91 °FScattered clouds.6 mph24%29.85 "Hg10 mi
9:55 AM90 °FScattered clouds.6 mph24%29.86 "Hg40 mi
8:47 AM82 °FScattered clouds.7 mph30%29.87 "Hg40 mi
7:48 AM73 °FScattered clouds.6 mph44%29.88 "Hg40 mi
6:50 AM72 °FScattered clouds.6 mph50%29.88 "Hg40 mi
6:35 AM72 °FClear.No wind47%29.88 "Hg10 mi
5:55 AM72 °FClear.No wind47%29.88 "Hg10 mi
5:35 AM72 °FClear.No wind47%29.88 "Hg10 mi
4:55 AM72 °FClear.No wind44%29.88 "Hg10 mi
4:35 AM70 °FClear.No wind57%29.88 "Hg10 mi
4:15 AM72 °FClear.No wind50%29.88 "Hg10 mi
3:55 AM72 °FClear.No wind44%29.88 "Hg10 mi
3:35 AM73 °FClear.No wind38%29.88 "Hg10 mi
3:15 AM73 °FClear.No wind41%29.88 "Hg10 mi
2:55 AM79 °FClear.No wind32%29.87 "Hg10 mi
2:35 AM77 °FClear.No wind34%29.87 "Hg10 mi
2:15 AM81 °FClear.No wind30%29.87 "Hg10 mi
1:55 AM81 °FClear.No wind30%29.87 "Hg10 mi
1:35 AM81 °FClear.6 mph28%29.87 "Hg10 mi
1:15 AM81 °FClear.3 mph30%29.87 "Hg10 mi
12:55 AM82 °FClear.No wind28%29.87 "Hg10 mi
12:35 AM82 °FClear.7 mph28%29.87 "Hg10 mi
12:15 AM82 °FClear.No wind28%29.87 "Hg10 mi
11:55 PM
Mon, Jun 29
82 °FClear.No wind28%29.87 "Hg10 mi
11:35 PM82 °FClear.No wind28%29.87 "Hg10 mi
11:15 PM84 °FClear.No wind27%29.87 "Hg10 mi
10:55 PM84 °FClear.5 mph27%29.87 "Hg10 mi
10:35 PM86 °FClear.5 mph25%29.87 "Hg10 mi
10:15 PM86 °FClear.6 mph25%29.87 "Hg10 mi
Weather by CustomWeather, © 2015

See weather overviewHow to use our weather pages